Location: Heilbronn
(49.1548°N, 9.2780°E)
Time: 12:01:10
(UTC+02:00)

Envisat - Visible Passes

Search period start: 20 May 2018 00:00
Search period end: 30 May 2018 00:00
Orbit: 764 x 766 km, 98.2° (Epoch: 19 May)

Date Brightness Start Highest point End Pass type
(mag) Time Alt. Az. Time Alt. Az. Time Alt. Az.
22 May 5.6 21:59:26 10° SW 22:02:47 17° W 22:06:09 10° NW visible
24 May 6.1 22:28:18 10° W 22:28:45 10° W 22:29:11 10° WNW visible
25 May 5.4 21:47:39 10° SW 21:51:30 21° W 21:55:22 10° NW visible
27 May 5.8 22:15:08 10° WSW 22:17:25 13° W 22:19:42 10° WNW visible
